Location: Rometta
(44.2000°N, 10.0500°E)
Time: 12:02:28
(UTC+00:00)

Cosmos 1818 - Pass Details

Date: 19 May 2021
Orbit: 771 x 802 km, 65.0° (Epoch: 15 June)

Event Time Altitude Azimuth Distance (km) Brightness Sun altitude
Rises 19:53:31 0° 327° (NNW) 3,320 8.5 -10.9°
Reaches altitude 10° 19:56:00 10° 331° (NNW) 2,386 7.3 -11.2°
Maximum altitude 20:01:26 60° 51° (NE) 918 3.9 -11.9°
Enters shadow 20:05:35 17° 128° (SE) 1,914 4.9 -12.5°
